Date String (YYYY-MM-DD hh:mm:ss) UTC,Instrument flags,Ambient pressure (hPa),Sample flow (lpm),Bypass flow (lpm),Sample temperature (°C),Ambient temperature (°C),ASC tube jacket temperature (°C),LED temperature (°C),Box temperature (°C),Sample RH (%),Span deviation,Mass concentration (μg/m³),Mass concentration (μg/m³),Mass concentration (μg/m³)
DateTimeUTC,F1_M11,P_M11,Q1_M11,Q2_M11,T1_M11,T2_M11,T3_M11,T4_M11,T5_M11,U1_M11,ZSPAN_M11,X0_M11,X2_M11,X1_M11
2022-11-23 18:00:00,,0820.3,4.99,0.00,22.0,20.4,00.0,31.0,23.8,10.7,0000.0,0013.90,0007.68,0006.75
2022-11-23 18:01:00,,0820.3,5.00,0.00,22.0,20.4,00.0,31.0,23.8,10.4,0000.0,0013.92,0007.90,0006.92
2022-11-23 18:02:00,,0820.3,5.00,0.00,21.9,20.3,00.0,31.0,23.7,10.2,0000.0,0015.04,0008.04,0007.06
2022-11-23 18:03:00,,0820.3,5.00,0.00,21.9,20.2,00.0,31.0,23.7,09.5,0000.0,0014.99,0008.09,0007.10
2022-11-23 18:04:00,,0820.3,5.00,0.00,21.9,20.2,00.0,31.0,23.7,09.5,0000.0,0014.92,0008.10,0007.12
2022-11-23 18:05:00,,0820.3,5.00,0.00,21.9,20.3,00.0,31.0,23.7,09.9,0000.0,0014.91,0008.11,0007.11
2022-11-23 18:06:00,,0820.3,5.00,0.00,21.9,20.4,00.0,30.9,23.7,08.9,0000.0,0014.10,0007.94,0006.96
2022-11-23 18:07:00,,0820.3,4.99,0.00,21.9,20.5,00.0,30.9,23.8,09.2,0000.0,0013.93,0007.78,0006.80
2022-11-23 18:08:00,,0820.3,4.99,0.00,21.9,20.5,00.0,30.9,23.8,09.6,0000.0,0013.51,0007.58,0006.65
2022-11-23 18:09:00,,0820.2,5.00,0.00,21.9,20.5,00.0,30.9,23.8,09.3,0000.0,0013.35,0007.44,0006.49
2022-11-23 18:10:00,,0820.3,4.99,0.00,21.9,20.5,00.0,30.9,23.7,08.7,0000.0,0012.93,0007.15,0006.29
2022-11-23 18:11:00,,0820.2,5.01,0.00,21.9,20.4,00.0,30.9,23.7,08.6,0000.0,0012.79,0006.89,0006.09
2022-11-23 18:12:00,,0820.2,5.00,0.00,21.9,20.3,00.0,30.9,23.7,08.4,0000.0,0012.68,0006.66,0005.88
2022-11-23 18:13:00,,0820.2,5.00,0.00,21.8,20.3,00.0,30.9,23.6,08.4,0000.0,0011.40,0006.44,0005.70
2022-11-23 18:14:00,,0820.2,4.99,0.00,21.8,20.2,00.0,30.9,23.6,07.8,0000.0,0011.20,0006.22,0005.52
2022-11-23 18:15:00,,0820.2,4.99,0.00,21.8,20.1,00.0,30.9,23.6,07.9,0000.0,0011.11,0006.08,0005.38
2022-11-23 18:16:00,,0820.2,5.01,0.00,21.8,20.1,00.0,30.8,23.5,08.3,0000.0,0010.84,0005.90,0005.23
2022-11-23 18:17:00,,0820.2,5.01,0.00,21.8,20.1,00.0,30.8,23.5,08.2,0000.0,0010.69,0005.82,0005.15
2022-11-23 18:18:00,,0820.3,4.99,0.00,21.7,20.1,00.0,30.8,23.5,08.4,0000.0,0010.39,0005.65,0005.04
2022-11-23 18:19:00,,0820.2,4.99,0.00,21.7,20.1,00.0,30.8,23.5,08.9,0000.0,0010.25,0005.52,0004.93
2022-11-23 18:20:00,,0820.2,5.02,0.00,21.7,20.2,00.0,30.8,23.5,09.3,0000.0,0010.25,0005.39,0004.84
2022-11-23 18:21:00,,0820.2,5.00,0.00,21.7,20.2,00.0,30.8,23.5,08.3,0000.0,0010.60,0005.26,0004.72
2022-11-23 18:22:00,,0820.2,4.98,0.00,21.7,20.2,00.0,30.8,23.5,08.0,0000.0,0010.98,0005.06,0004.55
2022-11-23 18:23:00,,0820.2,5.02,0.00,21.7,20.2,00.0,30.8,23.5,07.1,0000.0,0010.88,0004.82,0004.36
2022-11-23 18:24:00,,0820.2,5.01,0.00,21.7,20.2,00.0,30.7,23.5,07.3,0000.0,0010.69,0004.65,0004.18
2022-11-23 18:25:00,,0820.2,5.00,0.00,21.7,20.1,00.0,30.7,23.5,07.4,0000.0,0010.51,0004.56,0004.07
2022-11-23 18:26:00,,0820.2,4.99,0.00,21.7,20.1,00.0,30.7,23.5,07.2,0000.0,0010.34,0004.43,0003.95
2022-11-23 18:27:00,,0820.2,4.99,0.00,21.7,20.1,00.0,30.7,23.5,07.0,0000.0,0010.65,0004.25,0003.79
2022-11-23 18:28:00,,0820.2,5.00,0.00,21.6,20.1,00.0,30.7,23.5,07.1,0000.0,0010.46,0004.07,0003.63
2022-11-23 18:29:00,,0820.2,5.00,0.00,21.6,20.1,00.0,30.7,23.4,07.4,0000.0,0010.56,0003.98,0003.53
2022-11-23 18:30:00,,0820.2,4.99,0.00,21.6,20.1,00.0,30.7,23.5,07.9,0000.0,0011.12,0003.87,0003.41
2022-11-23 18:31:00,,0820.2,4.99,0.00,21.6,20.2,00.0,30.7,23.5,07.8,0000.0,0010.79,0003.71,0003.26
2022-11-23 18:32:00,,0820.2,5.02,0.00,21.6,20.2,00.0,30.7,23.5,07.9,0000.0,0010.13,0003.62,0003.17
2022-11-23 18:33:00,,0820.2,5.00,0.00,21.7,20.3,00.0,30.7,23.5,08.0,0000.0,0009.24,0003.59,0003.14
2022-11-23 18:34:00,,0820.1,5.00,0.00,21.7,20.4,00.0,30.6,23.5,07.8,0000.0,0008.46,0003.63,0003.14
2022-11-23 18:35:00,,0820.0,4.99,0.00,21.7,20.4,00.0,30.6,23.5,07.9,0000.0,0008.50,0003.65,0003.16
2022-11-23 18:36:00,,0820.0,5.00,0.00,21.7,20.5,00.0,30.6,23.6,08.0,0000.0,0008.66,0003.64,0003.15
2022-11-23 18:37:00,,0820.0,5.01,0.00,21.7,20.5,00.0,30.6,23.6,07.4,0000.0,0008.51,0003.59,0003.10
2022-11-23 18:38:00,,0820.1,5.01,0.00,21.7,20.4,00.0,30.7,23.6,07.5,0000.0,0007.83,0003.54,0003.05
2022-11-23 18:39:00,,0820.1,5.00,0.00,21.7,20.3,00.0,30.7,23.6,08.0,0000.0,0008.23,0003.50,0003.01
2022-11-23 18:40:00,,0820.1,4.99,0.00,21.7,20.4,00.0,30.7,23.6,07.9,0000.0,0007.88,0003.43,0002.94
2022-11-23 18:41:00,,0820.2,5.00,0.00,21.7,20.4,00.0,30.7,23.6,07.7,0000.0,0007.33,0003.30,0002.80
2022-11-23 18:42:00,,0820.2,4.99,0.00,21.7,20.4,00.0,30.7,23.6,07.5,0000.0,0007.75,0003.22,0002.71
2022-11-23 18:43:00,,0820.2,5.00,0.00,21.7,20.3,00.0,30.7,23.6,07.7,0000.0,0007.42,0003.11,0002.60
2022-11-23 18:44:00,,0820.2,5.02,0.00,21.7,20.3,00.0,30.7,23.5,07.8,0000.0,0007.14,0002.96,0002.50
2022-11-23 18:45:00,,0820.2,5.00,0.00,21.7,20.4,00.0,30.6,23.5,07.7,0000.0,0006.97,0002.83,0002.42
2022-11-23 18:46:00,,0820.2,4.99,0.00,21.7,20.4,00.0,30.6,23.5,07.9,0000.0,0006.85,0002.76,0002.36
2022-11-23 18:47:00,,0820.2,4.99,0.00,21.7,20.4,00.0,30.6,23.5,07.7,0000.0,0006.24,0002.64,0002.25
2022-11-23 18:48:00,,0820.1,5.00,0.00,21.7,20.3,00.0,30.6,23.5,07.2,0000.0,0006.09,0002.54,0002.19
2022-11-23 18:49:00,,0820.0,5.00,0.00,21.7,20.4,00.0,30.6,23.6,06.4,0000.0,0005.82,0002.43,0002.09
2022-11-23 18:50:00,,0820.0,5.01,0.00,21.7,20.5,00.0,30.6,23.5,05.9,0000.0,0004.81,0002.30,0001.96
2022-11-23 18:51:00,,0820.0,5.00,0.00,21.7,20.5,00.0,30.6,23.6,06.6,0000.0,0004.70,0002.16,0001.84
2022-11-23 18:52:00,,0820.0,4.99,0.00,21.7,20.6,00.0,30.6,23.6,07.1,0000.0,0004.21,0002.12,0001.77
2022-11-23 18:53:00,,0820.0,5.00,0.00,21.8,20.6,00.0,30.6,23.6,06.8,0000.0,0003.09,0002.00,0001.68
2022-11-23 18:54:00,,0820.0,5.00,0.00,21.8,20.6,00.0,30.6,23.7,06.6,0000.0,0002.94,0001.90,0001.58
2022-11-23 18:55:00,,0820.0,5.01,0.00,21.8,20.6,00.0,30.7,23.7,07.0,0000.0,0002.80,0001.81,0001.50
2022-11-23 18:56:00,,0820.0,5.01,0.00,21.8,20.6,00.0,30.7,23.7,06.4,0000.0,0002.65,0001.70,0001.42
2022-11-23 18:57:00,,0820.0,4.98,0.00,21.8,20.6,00.0,30.7,23.7,06.2,0000.0,0002.50,0001.59,0001.33
2022-11-23 18:58:00,,0820.0,5.01,0.00,21.8,20.7,00.0,30.7,23.8,05.8,0000.0,0002.34,0001.49,0001.26
2022-11-23 18:59:00,,0819.9,5.00,0.00,21.8,20.7,00.0,30.7,23.8,06.1,0000.0,0002.20,0001.40,0001.21
